Time,TemperatureF,DewpointF,PressureIn,WindDirection,WindDirectionDegrees,WindSpeedMPH,WindSpeedGustMPH,Humidity,HourlyPrecipIn,Conditions,Clouds,dailyrainin,SoftwareType,DateUTC
2013-09-15 00:01:00,52.1,48.4,30.10,South,183,0.0,0.0,87,0.00,,SCT200,0.00,VWS V14.01,2013-09-15 04:01:00,
2013-09-15 00:02:00,52.0,48.3,30.10,South,183,0.0,0.0,87,0.00,,SCT200,0.00,VWS V14.01,2013-09-15 04:02:00,
2013-09-15 00:07:00,52.0,48.3,30.10,South,183,0.0,0.0,87,0.00,,SCT200,0.00,VWS V14.01,2013-09-15 04:07:00,
2013-09-15 00:12:00,51.9,48.2,30.10,South,183,0.0,0.0,87,0.00,,SCT200,0.00,VWS V14.01,2013-09-15 04:12:00,
2013-09-15 00:17:00,51.9,48.2,30.10,South,183,0.0,0.0,87,0.00,,SCT200,0.00,VWS V14.01,2013-09-15 04:17:00,
2013-09-15 00:22:00,51.8,48.4,30.10,South,183,0.0,0.0,88,0.00,,SCT200,0.00,VWS V14.01,2013-09-15 04:22:00,
2013-09-15 00:27:00,51.7,48.0,30.09,South,183,0.0,0.0,87,0.00,,SCT200,0.00,VWS V14.01,2013-09-15 04:27:00,
2013-09-15 00:32:00,51.6,48.2,30.09,South,183,0.0,0.0,88,0.00,,SCT200,0.00,VWS V14.01,2013-09-15 04:32:00,
2013-09-15 00:37:00,51.5,48.1,30.09,South,183,0.0,0.0,88,0.00,,SCT200,0.00,VWS V14.01,2013-09-15 04:37:00,
2013-09-15 00:42:00,51.5,48.4,30.09,South,183,0.0,0.0,89,0.00,,SCT200,0.00,VWS V14.01,2013-09-15 04:42:00,
2013-09-15 00:47:00,51.4,48.3,30.10,South,183,0.0,0.0,89,0.00,,SCT200,0.00,VWS V14.01,2013-09-15 04:47:00,
2013-09-15 00:52:00,51.4,48.6,30.10,South,183,0.0,0.0,90,0.00,,SCT200,0.00,VWS V14.01,2013-09-15 04:52:00,
2013-09-15 00:57:00,51.4,48.6,30.10,South,183,0.0,0.0,90,0.00,,SCT200,0.00,VWS V14.01,2013-09-15 04:57:00,
2013-09-15 01:02:00,51.3,48.5,30.10,South,183,0.0,0.0,90,0.00,,CLR,0.00,VWS V14.01,2013-09-15 05:02:00,
2013-09-15 01:07:00,51.3,48.2,30.10,South,183,0.0,0.0,89,0.00,,CLR,0.00,VWS V14.01,2013-09-15 05:07:00,
2013-09-15 01:12:00,51.3,48.5,30.10,South,183,0.0,0.0,90,0.00,,CLR,0.00,VWS V14.01,2013-09-15 05:12:00,
2013-09-15 01:18:00,51.2,48.1,30.09,South,183,0.0,0.0,89,0.00,,CLR,0.00,VWS V14.01,2013-09-15 05:18:00,
2013-09-15 01:23:00,51.1,48.0,30.09,South,183,0.0,0.0,89,0.00,,CLR,0.00,VWS V14.01,2013-09-15 05:23:00,
2013-09-15 01:28:00,51.1,48.0,30.09,South,183,0.0,0.0,89,0.00,,CLR,0.00,VWS V14.01,2013-09-15 05:28:00,
2013-09-15 01:33:00,51.0,47.9,30.09,South,183,0.0,0.0,89,0.00,,CLR,0.00,VWS V14.01,2013-09-15 05:33:00,
2013-09-15 01:38:00,51.0,47.9,30.08,South,183,0.0,0.0,89,0.00,,CLR,0.00,VWS V14.01,2013-09-15 05:38:00,
2013-09-15 01:43:00,51.0,47.9,30.08,South,183,0.0,0.0,89,0.00,,CLR,0.00,VWS V14.01,2013-09-15 05:43:00,
2013-09-15 01:48:00,50.9,47.5,30.09,South,183,0.0,1.0,88,0.00,,CLR,0.00,VWS V14.01,2013-09-15 05:48:00,
2013-09-15 01:53:00,50.9,47.5,30.09,South,183,0.0,0.0,88,0.00,,CLR,0.00,VWS V14.01,2013-09-15 05:53:00,
2013-09-15 01:58:00,50.9,47.5,30.09,South,183,0.0,0.0,88,0.00,,CLR,0.00,VWS V14.01,2013-09-15 05:58:00,
2013-09-15 02:03:00,50.9,47.5,30.09,South,183,0.0,1.0,88,0.00,,CLR,0.00,VWS V14.01,2013-09-15 06:03:00,
2013-09-15 02:08:00,50.9,47.5,30.09,South,183,0.0,1.0,88,0.00,,CLR,0.00,VWS V14.01,2013-09-15 06:08:00,
2013-09-15 02:13:00,51.1,48.0,30.08,South,183,0.0,1.0,89,0.00,,CLR,0.00,VWS V14.01,2013-09-15 06:13:00,
2013-09-15 02:18:00,51.3,47.9,30.08,South,183,2.0,2.0,88,0.00,,CLR,0.00,VWS V14.01,2013-09-15 06:18:00,
2013-09-15 02:23:00,51.5,48.1,30.08,South,183,0.0,0.0,88,0.00,,CLR,0.00,VWS V14.01,2013-09-15 06:23:00,
2013-09-15 02:28:00,51.5,48.1,30.08,South,183,0.0,0.0,88,0.00,,CLR,0.00,VWS V14.01,2013-09-15 06:28:00,
2013-09-15 02:33:00,51.5,48.1,30.08,South,183,0.0,1.0,88,0.00,,CLR,0.00,VWS V14.01,2013-09-15 06:33:00,
2013-09-15 02:38:00,51.5,48.1,30.08,South,183,2.0,2.0,88,0.00,,CLR,0.00,VWS V14.01,2013-09-15 06:38:00,
2013-09-15 02:43:00,51.4,48.0,30.08,South,183,0.0,0.0,88,0.00,,CLR,0.00,VWS V14.01,2013-09-15 06:43:00,
2013-09-15 02:48:00,51.4,48.0,30.08,South,183,0.0,1.0,88,0.00,,CLR,0.00,VWS V14.01,2013-09-15 06:48:00,
2013-09-15 02:53:00,51.3,48.2,30.08,South,183,0.0,1.0,89,0.00,,CLR,0.00,VWS V14.01,2013-09-15 06:53:00,
2013-09-15 02:58:00,51.3,48.2,30.08,South,183,0.0,1.0,89,0.00,,CLR,0.00,VWS V14.01,2013-09-15 06:58:00,
2013-09-15 03:03:00,51.2,48.1,30.08,South,183,0.0,0.0,89,0.00,,CLR,0.00,VWS V14.01,2013-09-15 07:03:00,
2013-09-15 03:08:00,51.2,48.1,30.08,South,183,0.0,0.0,89,0.00,,CLR,0.00,VWS V14.01,2013-09-15 07:08:00,
2013-09-15 03:13:00,51.1,48.0,30.07,South,183,0.0,0.0,89,0.00,,CLR,0.00,VWS V14.01,2013-09-15 07:13:00,
2013-09-15 03:18:00,51.0,47.9,30.07,South,183,0.0,0.0,89,0.00,,CLR,0.00,VWS V14.01,2013-09-15 07:18:00,
2013-09-15 03:23:00,51.0,47.9,30.07,South,183,0.0,0.0,89,0.00,,CLR,0.00,VWS V14.01,2013-09-15 07:23:00,
2013-09-15 03:28:00,50.9,47.8,30.07,South,183,0.0,1.0,89,0.00,,CLR,0.00,VWS V14.01,2013-09-15 07:28:00,
2013-09-15 03:33:00,50.8,47.7,30.07,South,183,0.0,0.0,89,0.00,,CLR,0.00,VWS V14.01,2013-09-15 07:33:00,
2013-09-15 03:38:00,50.8,47.7,30.07,South,183,0.0,0.0,89,0.00,,CLR,0.00,VWS V14.01,2013-09-15 07:38:00,
2013-09-15 03:43:00,50.8,47.7,30.07,South,183,0.0,0.0,89,0.00,,CLR,0.00,VWS V14.01,2013-09-15 07:43:00,
2013-09-15 03:48:00,50.8,48.0,30.07,South,183,0.0,0.0,90,0.00,,CLR,0.00,VWS V14.01,2013-09-15 07:48:00,
2013-09-15 03:53:00,50.8,48.0,30.07,South,183,0.0,0.0,90,0.00,,CLR,0.00,VWS V14.01,2013-09-15 07:53:00,
2013-09-15 03:58:00,50.8,48.0,30.07,SSW,196,4.0,4.0,90,0.00,,CLR,0.00,VWS V14.01,2013-09-15 07:58:00,
2013-09-15 04:03:00,50.9,47.8,30.08,SSW,193,2.0,2.0,89,0.00,,CLR,0.00,VWS V14.01,2013-09-15 08:03:00,
2013-09-15 04:08:00,51.3,47.9,30.08,South,181,2.0,2.0,88,0.00,,CLR,0.00,VWS V14.01,2013-09-15 08:08:00,
2013-09-15 04:13:00,51.6,47.9,30.08,South,181,0.0,1.0,87,0.00,,CLR,0.00,VWS V14.01,2013-09-15 08:13:00,
2013-09-15 04:18:00,51.7,48.0,30.08,South,181,0.0,1.0,87,0.00,,CLR,0.00,VWS V14.01,2013-09-15 08:18:00,
2013-09-15 04:23:00,51.9,47.8,30.08,South,182,2.0,2.0,86,0.00,,CLR,0.00,VWS V14.01,2013-09-15 08:23:00,
2013-09-15 04:28:00,52.1,47.7,30.08,South,182,2.0,2.0,85,0.00,,CLR,0.00,VWS V14.01,2013-09-15 08:28:00,
2013-09-15 04:33:00,52.2,47.8,30.08,South,183,2.0,2.0,85,0.00,,CLR,0.00,VWS V14.01,2013-09-15 08:33:00,
2013-09-15 04:38:00,52.2,48.2,30.08,South,183,0.0,2.0,86,0.00,,CLR,0.00,VWS V14.01,2013-09-15 08:38:00,
2013-09-15 04:43:00,52.2,48.2,30.08,South,183,0.0,1.0,86,0.00,,CLR,0.00,VWS V14.01,2013-09-15 08:43:00,
2013-09-15 04:48:00,52.1,48.0,30.08,South,183,0.0,1.0,86,0.00,,CLR,0.00,VWS V14.01,2013-09-15 08:48:00,
2013-09-15 04:53:00,51.9,47.8,30.08,South,183,0.0,0.0,86,0.00,,CLR,0.00,VWS V14.01,2013-09-15 08:53:00,
2013-09-15 04:58:00,51.8,47.8,30.08,South,183,0.0,0.0,86,0.00,,CLR,0.00,VWS V14.01,2013-09-15 08:58:00,
2013-09-15 05:03:00,51.7,48.0,30.08,South,183,0.0,0.0,87,0.00,,CLR,0.00,VWS V14.01,2013-09-15 09:03:00,
2013-09-15 05:08:00,51.6,47.9,30.08,South,183,0.0,0.0,87,0.00,,CLR,0.00,VWS V14.01,2013-09-15 09:08:00,
2013-09-15 05:13:00,51.5,47.5,30.08,South,183,0.0,1.0,86,0.00,,CLR,0.00,VWS V14.01,2013-09-15 09:13:00,
2013-09-15 05:18:00,51.5,47.5,30.08,South,183,0.0,1.0,86,0.00,,CLR,0.00,VWS V14.01,2013-09-15 09:18:00,
2013-09-15 05:24:00,51.5,47.5,30.08,South,183,0.0,1.0,86,0.00,,CLR,0.00,VWS V14.01,2013-09-15 09:24:00,
2013-09-15 05:29:00,51.3,47.3,30.08,South,183,0.0,1.0,86,0.00,,CLR,0.00,VWS V14.01,2013-09-15 09:29:00,
2013-09-15 05:34:00,51.2,47.5,30.08,South,183,0.0,1.0,87,0.00,,CLR,0.00,VWS V14.01,2013-09-15 09:34:00,
2013-09-15 05:39:00,51.1,47.4,30.08,South,183,0.0,1.0,87,0.00,,CLR,0.00,VWS V14.01,2013-09-15 09:39:00,
2013-09-15 05:44:00,51.0,47.3,30.09,South,183,0.0,0.0,87,0.00,,CLR,0.00,VWS V14.01,2013-09-15 09:44:00,
2013-09-15 05:49:00,50.9,47.5,30.09,South,183,0.0,0.0,88,0.00,,CLR,0.00,VWS V14.01,2013-09-15 09:49:00,
2013-09-15 05:54:00,50.8,47.4,30.09,South,183,0.0,0.0,88,0.00,,CLR,0.00,VWS V14.01,2013-09-15 09:54:00,
2013-09-15 05:59:00,50.7,47.3,30.09,South,183,0.0,0.0,88,0.00,,BKN200,0.00,VWS V14.01,2013-09-15 09:59:00,
2013-09-15 06:04:00,50.6,47.2,30.09,South,183,0.0,0.0,88,0.00,,BKN200,0.00,VWS V14.01,2013-09-15 10:04:00,
2013-09-15 06:09:00,50.6,47.2,30.09,South,183,0.0,0.0,88,0.00,,BKN200,0.00,VWS V14.01,2013-09-15 10:09:00,
2013-09-15 06:14:00,50.5,47.1,30.09,South,183,0.0,0.0,88,0.00,,BKN200,0.00,VWS V14.01,2013-09-15 10:14:00,
2013-09-15 06:19:00,50.5,47.1,30.09,South,183,0.0,0.0,88,0.00,,BKN200,0.00,VWS V14.01,2013-09-15 10:19:00,
2013-09-15 06:24:00,50.4,47.0,30.09,South,183,0.0,0.0,88,0.00,,BKN200,0.00,VWS V14.01,2013-09-15 10:24:00,
2013-09-15 06:29:00,50.3,46.9,30.10,South,183,0.0,0.0,88,0.00,,BKN200,0.00,VWS V14.01,2013-09-15 10:29:00,
2013-09-15 06:34:00,50.3,47.2,30.10,South,183,0.0,0.0,89,0.00,,BKN200,0.00,VWS V14.01,2013-09-15 10:34:00,
2013-09-15 06:39:00,50.2,47.1,30.10,South,183,0.0,0.0,89,0.00,,BKN200,0.00,VWS V14.01,2013-09-15 10:39:00,
2013-09-15 06:44:00,50.2,47.1,30.10,South,183,0.0,0.0,89,0.00,,BKN200,0.00,VWS V14.01,2013-09-15 10:44:00,
2013-09-15 06:49:00,50.2,47.1,30.10,South,183,0.0,0.0,89,0.00,,BKN200,0.00,VWS V14.01,2013-09-15 10:49:00,
2013-09-15 06:54:00,50.1,47.0,30.10,South,183,0.0,0.0,89,0.00,,BKN200,0.00,VWS V14.01,2013-09-15 10:54:00,
2013-09-15 06:59:00,50.2,47.1,30.10,South,183,0.0,0.0,89,0.00,,BKN200,0.00,VWS V14.01,2013-09-15 10:59:00,
2013-09-15 07:04:00,50.2,47.1,30.10,South,183,0.0,0.0,89,0.00,,BKN200,0.00,VWS V14.01,2013-09-15 11:04:00,
2013-09-15 07:09:00,50.2,47.1,30.10,South,183,0.0,0.0,89,0.00,,BKN200,0.00,VWS V14.01,2013-09-15 11:09:00,
2013-09-15 07:14:00,50.2,46.8,30.10,South,183,0.0,0.0,88,0.00,,BKN200,0.00,VWS V14.01,2013-09-15 11:14:00,
2013-09-15 07:19:00,50.3,47.2,30.10,South,183,0.0,0.0,89,0.00,,BKN200,0.00,VWS V14.01,2013-09-15 11:19:00,
2013-09-15 07:24:00,50.4,47.0,30.10,South,183,0.0,0.0,88,0.00,,BKN200,0.00,VWS V14.01,2013-09-15 11:24:00,
2013-09-15 07:29:00,50.4,47.3,30.10,South,183,0.0,0.0,89,0.00,,BKN200,0.00,VWS V14.01,2013-09-15 11:29:00,
2013-09-15 07:34:00,50.5,47.4,30.10,South,183,0.0,0.0,89,0.00,,BKN200,0.00,VWS V14.01,2013-09-15 11:34:00,
2013-09-15 07:39:00,50.6,47.2,30.10,South,183,0.0,1.0,88,0.00,,BKN200,0.00,VWS V14.01,2013-09-15 11:39:00,
2013-09-15 07:44:00,50.6,47.2,30.10,South,183,0.0,1.0,88,0.00,,BKN200,0.00,VWS V14.01,2013-09-15 11:44:00,
2013-09-15 07:49:00,50.7,47.6,30.10,South,183,0.0,1.0,89,0.00,,BKN200,0.00,VWS V14.01,2013-09-15 11:49:00,
2013-09-15 07:54:00,50.9,47.8,30.10,South,183,0.0,0.0,89,0.00,,BKN200,0.00,VWS V14.01,2013-09-15 11:54:00,
2013-09-15 07:59:00,51.0,47.6,30.10,South,183,0.0,0.0,88,0.00,,BKN200,0.00,VWS V14.01,2013-09-15 11:59:00,
2013-09-15 08:04:00,51.1,47.7,30.10,South,183,0.0,0.0,88,0.00,,BKN200,0.00,VWS V14.01,2013-09-15 12:04:00,
2013-09-15 08:09:00,51.2,47.8,30.10,South,183,0.0,0.0,88,0.00,,BKN200,0.00,VWS V14.01,2013-09-15 12:09:00,
2013-09-15 08:14:00,51.3,47.9,30.10,South,183,0.0,0.0,88,0.00,,BKN200,0.00,VWS V14.01,2013-09-15 12:14:00,
2013-09-15 08:19:00,51.4,48.0,30.10,South,183,0.0,0.0,88,0.00,,BKN200,0.00,VWS V14.01,2013-09-15 12:19:00,
2013-09-15 08:24:00,51.5,47.8,30.10,South,183,0.0,0.0,87,0.00,,BKN200,0.00,VWS V14.01,2013-09-15 12:24:00,
2013-09-15 08:29:00,51.7,48.3,30.09,South,183,0.0,0.0,88,0.00,,BKN200,0.00,VWS V14.01,2013-09-15 12:29:00,
2013-09-15 08:34:00,51.8,48.1,30.09,South,183,0.0,0.0,87,0.00,,BKN200,0.00,VWS V14.01,2013-09-15 12:34:00,
2013-09-15 08:39:00,51.9,47.8,30.09,South,183,0.0,0.0,86,0.00,,BKN200,0.00,VWS V14.01,2013-09-15 12:39:00,
2013-09-15 08:44:00,52.1,47.4,30.09,South,183,0.0,1.0,84,0.00,,BKN200,0.00,VWS V14.01,2013-09-15 12:44:00,
2013-09-15 08:49:00,52.3,47.9,30.09,South,183,0.0,1.0,85,0.00,,BKN200,0.00,VWS V14.01,2013-09-15 12:49:00,
2013-09-15 08:54:00,52.6,47.6,30.09,South,183,0.0,1.0,83,0.00,,BKN200,0.00,VWS V14.01,2013-09-15 12:54:00,
2013-09-15 08:59:00,52.9,47.6,30.09,South,183,0.0,1.0,82,0.00,,OVC200,0.00,VWS V14.01,2013-09-15 12:59:00,
2013-09-15 09:04:00,53.3,47.3,30.08,South,183,2.0,2.0,80,0.00,,OVC200,0.00,VWS V14.01,2013-09-15 13:04:00,
2013-09-15 09:10:00,53.8,47.5,30.08,South,183,0.0,2.0,79,0.00,,OVC200,0.00,VWS V14.01,2013-09-15 13:10:00,
2013-09-15 09:15:00,54.2,47.2,30.08,SSW,193,4.0,4.0,77,0.00,,OVC200,0.00,VWS V14.01,2013-09-15 13:15:00,
2013-09-15 09:20:00,54.6,47.2,30.08,South,191,2.0,3.0,76,0.00,,OVC200,0.00,VWS V14.01,2013-09-15 13:20:00,
2013-09-15 09:25:00,54.8,47.4,30.08,SSW,193,0.0,2.0,76,0.00,,OVC200,0.00,VWS V14.01,2013-09-15 13:25:00,
2013-09-15 09:30:00,55.0,47.9,30.08,SSW,193,0.0,2.0,77,0.00,,OVC200,0.00,VWS V14.01,2013-09-15 13:30:00,
2013-09-15 09:35:00,55.3,47.9,30.08,SSW,194,0.0,2.0,76,0.00,,OVC200,0.00,VWS V14.01,2013-09-15 13:35:00,
2013-09-15 09:40:00,55.4,47.6,30.08,SSW,194,2.0,2.0,75,0.00,,OVC200,0.00,VWS V14.01,2013-09-15 13:40:00,
2013-09-15 09:45:00,55.6,47.5,30.08,SSW,192,2.0,2.0,74,0.00,,OVC200,0.00,VWS V14.01,2013-09-15 13:45:00,
2013-09-15 09:50:00,55.8,47.3,30.08,SSW,202,2.0,2.0,73,0.00,,OVC200,0.00,VWS V14.01,2013-09-15 13:50:00,
2013-09-15 09:55:00,56.0,47.8,30.08,SW,217,0.0,2.0,74,0.00,,OVC200,0.00,VWS V14.01,2013-09-15 13:55:00,
2013-09-15 10:00:00,56.2,47.7,30.08,South,191,2.0,3.0,73,0.00,,OVC140,0.00,VWS V14.01,2013-09-15 14:00:00,
2013-09-15 10:05:00,56.3,47.4,30.08,South,191,2.0,2.0,72,0.00,,OVC140,0.00,VWS V14.01,2013-09-15 14:05:00,
2013-09-15 10:10:00,56.3,47.0,30.07,SSW,207,4.0,4.0,71,0.00,,OVC140,0.00,VWS V14.01,2013-09-15 14:10:00,
2013-09-15 10:15:00,56.2,46.9,30.07,SSW,208,2.0,4.0,71,0.00,,OVC140,0.00,VWS V14.01,2013-09-15 14:15:00,
2013-09-15 10:20:00,56.3,47.0,30.06,SSW,210,2.0,4.0,71,0.00,,OVC140,0.00,VWS V14.01,2013-09-15 14:20:00,
2013-09-15 10:25:00,56.5,47.6,30.07,SSW,210,0.0,1.0,72,0.00,,OVC140,0.00,VWS V14.01,2013-09-15 14:25:00,
2013-09-15 10:30:00,56.8,47.9,30.07,South,190,0.0,3.0,72,0.00,,OVC140,0.00,VWS V14.01,2013-09-15 14:30:00,
2013-09-15 10:35:00,57.2,47.9,30.07,South,182,2.0,3.0,71,0.00,,OVC140,0.00,VWS V14.01,2013-09-15 14:35:00,
2013-09-15 10:40:00,57.6,48.3,30.07,South,183,0.0,0.0,71,0.00,,OVC140,0.00,VWS V14.01,2013-09-15 14:40:00,
2013-09-15 10:45:00,58.0,48.7,30.07,SSW,196,2.0,3.0,71,0.00,,OVC140,0.00,VWS V14.01,2013-09-15 14:45:00,
2013-09-15 10:50:00,58.2,48.1,30.07,SSW,193,2.0,2.0,69,0.00,,OVC140,0.00,VWS V14.01,2013-09-15 14:50:00,
2013-09-15 10:55:00,58.4,48.3,30.07,South,190,4.0,4.0,69,0.00,,OVC140,0.00,VWS V14.01,2013-09-15 14:55:00,
2013-09-15 11:00:00,58.5,48.4,30.07,SW,234,2.0,2.0,69,0.00,,OVC180,0.00,VWS V14.01,2013-09-15 15:00:00,
2013-09-15 11:05:00,58.7,48.2,30.07,SSW,207,2.0,4.0,68,0.00,,OVC180,0.00,VWS V14.01,2013-09-15 15:05:00,
2013-09-15 11:10:00,58.8,47.9,30.08,South,188,6.0,6.0,67,0.00,,OVC180,0.00,VWS V14.01,2013-09-15 15:10:00,
2013-09-15 11:15:00,58.9,48.4,30.08,SSW,196,2.0,3.0,68,0.00,,OVC180,0.00,VWS V14.01,2013-09-15 15:15:00,
2013-09-15 11:20:00,58.9,47.6,30.08,West,262,2.0,2.0,66,0.00,,OVC180,0.00,VWS V14.01,2013-09-15 15:20:00,
2013-09-15 11:25:00,58.9,48.0,30.07,West,279,4.0,4.0,67,0.00,,OVC180,0.00,VWS V14.01,2013-09-15 15:25:00,
2013-09-15 11:30:00,58.9,47.6,30.07,SSW,196,4.0,4.0,66,0.00,,OVC180,0.00,VWS V14.01,2013-09-15 15:30:00,
2013-09-15 11:35:00,58.9,47.6,30.08,South,184,2.0,4.0,66,0.00,,OVC180,0.00,VWS V14.01,2013-09-15 15:35:00,
2013-09-15 11:40:00,59.0,48.5,30.07,South,189,0.0,1.0,68,0.00,,OVC180,0.00,VWS V14.01,2013-09-15 15:40:00,
2013-09-15 11:45:00,59.2,48.7,30.07,SSW,194,6.0,6.0,68,0.00,,OVC180,0.00,VWS V14.01,2013-09-15 15:45:00,
2013-09-15 11:50:00,59.3,48.0,30.07,WSW,254,2.0,3.0,66,0.00,,OVC180,0.00,VWS V14.01,2013-09-15 15:50:00,
2013-09-15 11:55:00,59.5,48.9,30.07,West,262,2.0,3.0,68,0.00,,OVC180,0.00,VWS V14.01,2013-09-15 15:55:00,
2013-09-15 12:00:00,59.6,48.2,30.07,SSW,199,2.0,2.0,66,0.00,,OVC140,0.00,VWS V14.01,2013-09-15 16:00:00,
2013-09-15 12:05:00,59.7,48.7,30.07,SSW,195,4.0,4.0,67,0.00,,OVC140,0.00,VWS V14.01,2013-09-15 16:05:00,
2013-09-15 12:10:00,59.7,48.3,30.07,West,270,0.0,1.0,66,0.00,,OVC140,0.00,VWS V14.01,2013-09-15 16:10:00,
2013-09-15 12:15:00,59.8,48.0,30.07,SSW,195,4.0,4.0,65,0.00,,OVC140,0.00,VWS V14.01,2013-09-15 16:15:00,
2013-09-15 12:21:00,59.9,48.5,30.07,South,182,2.0,2.0,66,0.00,,OVC140,0.00,VWS V14.01,2013-09-15 16:21:00,
2013-09-15 12:26:00,59.9,48.5,30.07,South,182,0.0,3.0,66,0.00,,OVC140,0.00,VWS V14.01,2013-09-15 16:26:00,
2013-09-15 12:31:00,60.0,49.4,30.07,SSW,213,0.0,1.0,68,0.00,,OVC140,0.00,VWS V14.01,2013-09-15 16:31:00,
2013-09-15 12:36:00,60.2,48.8,30.07,WSW,257,0.0,2.0,66,0.00,,OVC140,0.00,VWS V14.01,2013-09-15 16:36:00,
2013-09-15 12:41:00,60.2,48.8,30.07,South,191,2.0,2.0,66,0.00,,OVC140,0.00,VWS V14.01,2013-09-15 16:41:00,
2013-09-15 12:46:00,60.4,49.8,30.07,South,191,0.0,2.0,68,0.00,,OVC140,0.00,VWS V14.01,2013-09-15 16:46:00,
2013-09-15 12:51:00,60.7,49.3,30.07,South,178,2.0,2.0,66,0.00,,OVC140,0.00,VWS V14.01,2013-09-15 16:51:00,
2013-09-15 12:56:00,60.9,49.1,30.07,West,259,4.0,4.0,65,0.00,,OVC140,0.00,VWS V14.01,2013-09-15 16:56:00,
2013-09-15 13:01:00,61.0,49.2,30.07,WSW,254,4.0,4.0,65,0.00,,-RA,0.00,VWS V14.01,2013-09-15 17:01:00,
2013-09-15 13:06:00,61.1,49.3,30.07,South,179,6.0,6.0,65,0.00,,-RA,0.00,VWS V14.01,2013-09-15 17:06:00,
2013-09-15 13:11:00,61.2,49.3,30.07,West,262,2.0,3.0,65,0.00,,-RA,0.00,VWS V14.01,2013-09-15 17:11:00,
2013-09-15 13:16:00,61.3,49.5,30.08,WSW,248,4.0,4.0,65,0.00,,-RA,0.00,VWS V14.01,2013-09-15 17:16:00,
2013-09-15 13:21:00,61.2,48.9,30.07,WSW,241,2.0,2.0,64,0.00,,-RA,0.00,VWS V14.01,2013-09-15 17:21:00,
2013-09-15 13:26:00,61.1,49.7,30.07,SSW,197,2.0,3.0,66,0.00,,-RA,0.00,VWS V14.01,2013-09-15 17:26:00,
2013-09-15 13:31:00,61.0,50.4,30.07,SW,216,2.0,2.0,68,0.00,,-RA,0.00,VWS V14.01,2013-09-15 17:31:00,
2013-09-15 13:36:00,60.9,50.7,30.07,WSW,257,4.0,4.0,69,0.00,,-RA,0.00,VWS V14.01,2013-09-15 17:36:00,
2013-09-15 13:41:00,60.7,50.9,30.07,WSW,246,2.0,2.0,70,0.00,,-RA,0.00,VWS V14.01,2013-09-15 17:41:00,
2013-09-15 13:46:00,60.5,51.1,30.07,SSW,213,2.0,2.0,71,0.00,,-RA,0.00,VWS V14.01,2013-09-15 17:46:00,
2013-09-15 13:51:00,60.4,51.3,30.07,SSW,213,2.0,2.0,72,0.00,,-RA,0.00,VWS V14.01,2013-09-15 17:51:00,
2013-09-15 13:56:00,60.2,51.5,30.07,SW,236,2.0,2.0,73,0.00,,-RA,0.00,VWS V14.01,2013-09-15 17:56:00,
2013-09-15 14:01:00,60.1,51.8,30.07,SSW,205,0.0,3.0,74,0.00,,-RA,0.00,VWS V14.01,2013-09-15 18:01:00,
2013-09-15 14:06:00,60.0,51.7,30.07,SW,232,0.0,3.0,74,0.00,,-RA,0.00,VWS V14.01,2013-09-15 18:06:00,
2013-09-15 14:11:00,59.9,51.6,30.07,SW,231,0.0,1.0,74,0.00,,-RA,0.00,VWS V14.01,2013-09-15 18:11:00,
2013-09-15 14:16:00,59.9,51.6,30.07,SW,233,2.0,2.0,74,0.00,,-RA,0.00,VWS V14.01,2013-09-15 18:16:00,
2013-09-15 14:22:00,60.0,52.1,30.07,SW,234,2.0,2.0,75,0.00,,-RA,0.00,VWS V14.01,2013-09-15 18:22:00,
2013-09-15 14:27:00,60.0,52.4,30.07,SW,234,2.0,2.0,76,0.00,,-RA,0.00,VWS V14.01,2013-09-15 18:27:00,
2013-09-15 14:32:00,59.9,52.0,30.07,SW,234,0.0,1.0,75,0.00,,-RA,0.00,VWS V14.01,2013-09-15 18:32:00,
2013-09-15 14:37:00,59.7,52.1,30.07,SW,223,2.0,2.0,76,0.00,,-RA,0.00,VWS V14.01,2013-09-15 18:37:00,
2013-09-15 14:42:00,59.5,51.6,30.07,WSW,243,0.0,2.0,75,0.00,,-RA,0.00,VWS V14.01,2013-09-15 18:42:00,
2013-09-15 14:47:00,59.4,52.2,30.07,SW,216,2.0,2.0,77,0.00,,-RA,0.00,VWS V14.01,2013-09-15 18:47:00,
2013-09-15 14:52:00,59.2,51.7,30.07,South,183,0.0,2.0,76,0.00,,-RA,0.00,VWS V14.01,2013-09-15 18:52:00,
2013-09-15 14:57:00,59.0,52.2,30.07,West,263,2.0,2.0,78,0.00,,-RA,0.00,VWS V14.01,2013-09-15 18:57:00,
2013-09-15 15:02:00,58.7,52.2,30.07,West,263,2.0,2.0,79,0.00,,-RA,0.00,VWS V14.01,2013-09-15 19:02:00,
2013-09-15 15:07:00,58.4,52.6,30.07,West,263,0.0,2.0,81,0.00,,-RA,0.00,VWS V14.01,2013-09-15 19:07:00,
2013-09-15 15:12:00,58.2,53.1,30.07,West,263,0.0,0.0,83,0.00,,-RA,0.00,VWS V14.01,2013-09-15 19:12:00,
2013-09-15 15:17:00,58.1,53.3,30.07,West,263,0.0,0.0,84,0.00,,-RA,0.00,VWS V14.01,2013-09-15 19:17:00,
2013-09-15 15:18:00,58.0,53.2,30.07,West,263,0.0,0.0,84,0.01,,-RA,0.01,VWS V14.01,2013-09-15 19:18:00,
2013-09-15 15:23:00,57.9,53.4,30.07,WSW,252,0.0,1.0,85,0.01,,-RA,0.01,VWS V14.01,2013-09-15 19:23:00,
2013-09-15 15:28:00,57.7,53.2,30.07,WSW,252,0.0,1.0,85,0.01,,-RA,0.01,VWS V14.01,2013-09-15 19:28:00,
2013-09-15 15:33:00,57.5,53.3,30.07,WSW,252,0.0,1.0,86,0.01,,-RA,0.01,VWS V14.01,2013-09-15 19:33:00,
2013-09-15 15:38:00,57.4,53.6,30.06,WSW,252,0.0,1.0,87,0.01,,-RA,0.01,VWS V14.01,2013-09-15 19:38:00,
2013-09-15 15:43:00,57.3,53.5,30.06,WSW,252,0.0,1.0,87,0.01,,-RA,0.01,VWS V14.01,2013-09-15 19:43:00,
2013-09-15 15:48:00,57.3,53.5,30.07,WSW,252,0.0,1.0,87,0.01,,-RA,0.01,VWS V14.01,2013-09-15 19:48:00,
2013-09-15 15:53:00,57.2,53.7,30.07,WSW,252,0.0,0.0,88,0.01,,-RA,0.01,VWS V14.01,2013-09-15 19:53:00,
2013-09-15 15:58:00,57.1,53.9,30.07,WSW,252,0.0,1.0,89,0.02,,-RA,0.02,VWS V14.01,2013-09-15 19:58:00,
2013-09-15 16:03:00,57.1,53.6,30.06,WSW,252,0.0,1.0,88,0.02,,-RA,0.02,VWS V14.01,2013-09-15 20:03:00,
2013-09-15 16:08:00,56.9,53.7,30.06,WSW,252,2.0,2.0,89,0.02,,-RA,0.02,VWS V14.01,2013-09-15 20:08:00,
2013-09-15 16:13:00,56.7,53.5,30.06,NW,321,2.0,2.0,89,0.02,,-RA,0.02,VWS V14.01,2013-09-15 20:13:00,
2013-09-15 16:18:00,56.5,53.3,30.06,NW,321,2.0,2.0,89,0.02,,-RA,0.02,VWS V14.01,2013-09-15 20:18:00,
2013-09-15 16:23:00,56.3,52.8,30.06,NW,319,2.0,2.0,88,0.01,,-RA,0.02,VWS V14.01,2013-09-15 20:23:00,
2013-09-15 16:28:00,56.2,53.0,30.07,West,265,0.0,2.0,89,0.01,,-RA,0.02,VWS V14.01,2013-09-15 20:28:00,
2013-09-15 16:33:00,56.1,52.9,30.06,West,265,2.0,2.0,89,0.01,,-RA,0.02,VWS V14.01,2013-09-15 20:33:00,
2013-09-15 16:38:00,56.1,52.9,30.07,West,265,2.0,2.0,89,0.01,,-RA,0.02,VWS V14.01,2013-09-15 20:38:00,
2013-09-15 16:43:00,56.0,53.1,30.07,West,265,2.0,2.0,90,0.01,,-RA,0.02,VWS V14.01,2013-09-15 20:43:00,
2013-09-15 16:48:00,56.0,53.4,30.07,West,265,0.0,2.0,91,0.02,,-RA,0.03,VWS V14.01,2013-09-15 20:48:00,
2013-09-15 16:53:00,56.0,53.4,30.07,West,265,0.0,1.0,91,0.02,,-RA,0.03,VWS V14.01,2013-09-15 20:53:00,
2013-09-15 16:58:00,56.0,53.4,30.07,West,270,2.0,2.0,91,0.02,,-RA,0.03,VWS V14.01,2013-09-15 20:58:00,
2013-09-15 17:03:00,56.0,53.4,30.07,West,270,0.0,1.0,91,0.01,,-RA,0.03,VWS V14.01,2013-09-15 21:03:00,
2013-09-15 17:08:00,55.9,53.3,30.07,NW,307,2.0,2.0,91,0.01,,-RA,0.03,VWS V14.01,2013-09-15 21:08:00,
2013-09-15 17:13:00,55.8,53.2,30.07,NW,307,2.0,2.0,91,0.01,,-RA,0.03,VWS V14.01,2013-09-15 21:13:00,
2013-09-15 17:18:00,55.7,53.1,30.07,NW,307,0.0,2.0,91,0.02,,-RA,0.04,VWS V14.01,2013-09-15 21:18:00,
2013-09-15 17:23:00,55.5,52.9,30.08,NW,307,0.0,1.0,91,0.02,,-RA,0.04,VWS V14.01,2013-09-15 21:23:00,
2013-09-15 17:28:00,55.4,52.5,30.08,West,265,2.0,2.0,90,0.02,,-RA,0.04,VWS V14.01,2013-09-15 21:28:00,
2013-09-15 17:33:00,55.3,52.4,30.08,West,263,0.0,1.0,90,0.02,,-RA,0.04,VWS V14.01,2013-09-15 21:33:00,
2013-09-15 17:39:00,55.2,52.6,30.08,West,263,0.0,1.0,91,0.02,,-RA,0.04,VWS V14.01,2013-09-15 21:39:00,
2013-09-15 17:44:00,55.1,52.5,30.08,West,263,0.0,1.0,91,0.02,,-RA,0.04,VWS V14.01,2013-09-15 21:44:00,
2013-09-15 17:49:00,55.0,52.4,30.08,West,263,2.0,2.0,91,0.02,,-RA,0.04,VWS V14.01,2013-09-15 21:49:00,
2013-09-15 17:54:00,54.9,52.3,30.08,West,263,0.0,1.0,91,0.01,,-RA,0.04,VWS V14.01,2013-09-15 21:54:00,
2013-09-15 17:59:00,54.9,52.0,30.08,South,188,2.0,2.0,90,0.01,,-RA,0.04,VWS V14.01,2013-09-15 21:59:00,
2013-09-15 18:04:00,54.8,52.2,30.08,South,188,0.0,1.0,91,0.01,,-RA,0.04,VWS V14.01,2013-09-15 22:04:00,
2013-09-15 18:09:00,54.7,52.1,30.08,South,188,0.0,1.0,91,0.01,,-RA,0.04,VWS V14.01,2013-09-15 22:09:00,
2013-09-15 18:14:00,54.6,52.0,30.08,South,188,0.0,1.0,91,0.01,,-RA,0.04,VWS V14.01,2013-09-15 22:14:00,
2013-09-15 18:19:00,54.6,52.0,30.08,South,188,0.0,1.0,91,0.01,,-RA,0.04,VWS V14.01,2013-09-15 22:19:00,
2013-09-15 18:24:00,54.6,52.3,30.09,South,188,0.0,1.0,92,0.00,,-RA,0.04,VWS V14.01,2013-09-15 22:24:00,
2013-09-15 18:29:00,54.6,52.0,30.09,South,188,0.0,2.0,91,0.00,,-RA,0.04,VWS V14.01,2013-09-15 22:29:00,
2013-09-15 18:34:00,54.5,52.2,30.09,South,188,0.0,0.0,92,0.00,,-RA,0.04,VWS V14.01,2013-09-15 22:34:00,
2013-09-15 18:39:00,54.5,52.5,30.09,South,188,0.0,0.0,93,0.00,,-RA,0.04,VWS V14.01,2013-09-15 22:39:00,
2013-09-15 18:44:00,54.5,52.5,30.09,South,188,0.0,0.0,93,0.00,,-RA,0.04,VWS V14.01,2013-09-15 22:44:00,
2013-09-15 18:49:00,54.5,52.5,30.09,South,188,0.0,1.0,93,0.00,,-RA,0.04,VWS V14.01,2013-09-15 22:49:00,
2013-09-15 18:54:00,54.5,52.5,30.08,South,188,0.0,0.0,93,0.00,,-RA,0.04,VWS V14.01,2013-09-15 22:54:00,
2013-09-15 18:59:00,54.5,52.5,30.08,South,188,0.0,0.0,93,0.00,,OVC060,0.04,VWS V14.01,2013-09-15 22:59:00,
2013-09-15 19:04:00,54.4,52.4,30.09,South,188,0.0,0.0,93,0.01,,OVC060,0.05,VWS V14.01,2013-09-15 23:04:00,
2013-09-15 19:09:00,54.4,52.4,30.09,South,188,0.0,0.0,93,0.01,,OVC060,0.05,VWS V14.01,2013-09-15 23:09:00,
2013-09-15 19:14:00,54.4,52.4,30.09,South,188,0.0,0.0,93,0.01,,OVC060,0.05,VWS V14.01,2013-09-15 23:14:00,
2013-09-15 19:19:00,54.4,52.4,30.10,South,188,0.0,0.0,93,0.01,,OVC060,0.05,VWS V14.01,2013-09-15 23:19:00,
2013-09-15 19:24:00,54.4,52.4,30.10,South,188,0.0,0.0,93,0.01,,OVC060,0.05,VWS V14.01,2013-09-15 23:24:00,
2013-09-15 19:29:00,54.4,52.4,30.10,South,188,0.0,0.0,93,0.01,,OVC060,0.05,VWS V14.01,2013-09-15 23:29:00,
2013-09-15 19:34:00,54.4,52.7,30.10,South,188,0.0,0.0,94,0.01,,OVC060,0.05,VWS V14.01,2013-09-15 23:34:00,
2013-09-15 19:39:00,54.4,52.7,30.10,South,188,0.0,1.0,94,0.02,,OVC060,0.06,VWS V14.01,2013-09-15 23:39:00,
2013-09-15 19:44:00,54.4,52.7,30.10,South,188,0.0,1.0,94,0.02,,OVC060,0.06,VWS V14.01,2013-09-15 23:44:00,
2013-09-15 19:49:00,54.3,52.6,30.10,South,188,0.0,1.0,94,0.02,,OVC060,0.06,VWS V14.01,2013-09-15 23:49:00,
2013-09-15 19:54:00,54.2,52.5,30.10,South,188,0.0,0.0,94,0.03,,OVC060,0.07,VWS V14.01,2013-09-15 23:54:00,
2013-09-15 19:59:00,54.2,52.5,30.10,South,188,0.0,0.0,94,0.03,,-RA,0.07,VWS V14.01,2013-09-15 23:59:00,
2013-09-15 20:04:00,54.1,52.4,30.10,South,188,0.0,0.0,94,0.03,,-RA,0.07,VWS V14.01,2013-09-16 00:04:00,
2013-09-15 20:09:00,54.1,52.4,30.10,South,188,0.0,0.0,94,0.03,,-RA,0.07,VWS V14.01,2013-09-16 00:09:00,
2013-09-15 20:14:00,54.0,52.3,30.10,South,188,0.0,0.0,94,0.02,,-RA,0.07,VWS V14.01,2013-09-16 00:14:00,
2013-09-15 20:19:00,54.0,52.3,30.10,South,188,0.0,1.0,94,0.02,,-RA,0.07,VWS V14.01,2013-09-16 00:19:00,
2013-09-15 20:24:00,53.9,52.2,30.10,South,188,0.0,0.0,94,0.02,,-RA,0.07,VWS V14.01,2013-09-16 00:24:00,
2013-09-15 20:29:00,53.9,52.2,30.10,South,188,0.0,0.0,94,0.02,,-RA,0.07,VWS V14.01,2013-09-16 00:29:00,
2013-09-15 20:34:00,53.9,52.2,30.10,South,188,0.0,1.0,94,0.02,,-RA,0.07,VWS V14.01,2013-09-16 00:34:00,
2013-09-15 20:39:00,53.9,52.5,30.11,South,188,0.0,1.0,95,0.02,,-RA,0.07,VWS V14.01,2013-09-16 00:39:00,
2013-09-15 20:44:00,53.9,52.5,30.10,South,188,0.0,1.0,95,0.01,,-RA,0.07,VWS V14.01,2013-09-16 00:44:00,
2013-09-15 20:49:00,53.9,52.5,30.10,South,188,0.0,1.0,95,0.01,,-RA,0.07,VWS V14.01,2013-09-16 00:49:00,
2013-09-15 20:54:00,53.9,52.5,30.11,South,188,0.0,0.0,95,0.00,,-RA,0.07,VWS V14.01,2013-09-16 00:54:00,
2013-09-15 20:59:00,53.9,52.5,30.10,South,188,0.0,0.0,95,0.00,,OVC090,0.07,VWS V14.01,2013-09-16 00:59:00,
2013-09-15 21:04:00,53.9,52.5,30.10,South,188,0.0,0.0,95,0.00,,OVC090,0.07,VWS V14.01,2013-09-16 01:04:00,
2013-09-15 21:10:00,53.9,52.5,30.10,South,188,0.0,0.0,95,0.00,,OVC090,0.07,VWS V14.01,2013-09-16 01:10:00,
2013-09-15 21:15:00,53.9,52.5,30.10,South,188,0.0,0.0,95,0.00,,OVC090,0.07,VWS V14.01,2013-09-16 01:15:00,
2013-09-15 21:20:00,53.9,52.5,30.10,South,188,0.0,0.0,95,0.00,,OVC090,0.07,VWS V14.01,2013-09-16 01:20:00,
2013-09-15 21:25:00,53.9,52.5,30.10,South,188,0.0,0.0,95,0.00,,OVC090,0.07,VWS V14.01,2013-09-16 01:25:00,
2013-09-15 21:30:00,53.8,52.4,30.10,South,188,0.0,0.0,95,0.00,,OVC090,0.07,VWS V14.01,2013-09-16 01:30:00,
2013-09-15 21:35:00,53.8,52.4,30.10,South,188,0.0,0.0,95,0.00,,OVC090,0.07,VWS V14.01,2013-09-16 01:35:00,
2013-09-15 21:40:00,53.8,52.4,30.10,South,188,0.0,0.0,95,0.00,,OVC090,0.07,VWS V14.01,2013-09-16 01:40:00,
2013-09-15 21:45:00,53.8,52.4,30.10,South,188,0.0,0.0,95,0.00,,OVC090,0.07,VWS V14.01,2013-09-16 01:45:00,
2013-09-15 21:50:00,53.7,52.3,30.10,South,188,0.0,1.0,95,0.00,,OVC090,0.07,VWS V14.01,2013-09-16 01:50:00,
2013-09-15 21:55:00,53.7,52.3,30.10,South,188,0.0,0.0,95,0.00,,OVC090,0.07,VWS V14.01,2013-09-16 01:55:00,
2013-09-15 22:00:00,53.7,52.3,30.10,South,188,0.0,0.0,95,0.00,,OVC090,0.07,VWS V14.01,2013-09-16 02:00:00,
2013-09-15 22:05:00,53.7,52.3,30.10,South,188,0.0,0.0,95,0.00,,OVC090,0.07,VWS V14.01,2013-09-16 02:05:00,
2013-09-15 22:10:00,53.7,52.3,30.10,South,188,0.0,0.0,95,0.00,,OVC090,0.07,VWS V14.01,2013-09-16 02:10:00,
2013-09-15 22:15:00,53.7,52.3,30.10,South,188,0.0,1.0,95,0.00,,OVC090,0.07,VWS V14.01,2013-09-16 02:15:00,
2013-09-15 22:20:00,53.6,52.2,30.10,South,188,0.0,1.0,95,0.00,,OVC090,0.07,VWS V14.01,2013-09-16 02:20:00,
2013-09-15 22:25:00,53.6,52.2,30.10,South,188,0.0,0.0,95,0.00,,OVC090,0.07,VWS V14.01,2013-09-16 02:25:00,
2013-09-15 22:30:00,53.6,52.2,30.11,South,188,0.0,0.0,95,0.00,,OVC090,0.07,VWS V14.01,2013-09-16 02:30:00,
2013-09-15 22:35:00,53.6,52.2,30.10,South,188,0.0,0.0,95,0.00,,OVC090,0.07,VWS V14.01,2013-09-16 02:35:00,
2013-09-15 22:40:00,53.6,52.2,30.11,South,188,0.0,0.0,95,0.00,,OVC090,0.07,VWS V14.01,2013-09-16 02:40:00,
2013-09-15 22:45:00,53.6,52.2,30.11,South,188,0.0,1.0,95,0.00,,OVC090,0.07,VWS V14.01,2013-09-16 02:45:00,
2013-09-15 22:50:00,53.6,52.2,30.11,South,188,0.0,0.0,95,0.00,,OVC090,0.07,VWS V14.01,2013-09-16 02:50:00,
2013-09-15 22:55:00,53.6,52.2,30.11,South,188,0.0,0.0,95,0.00,,OVC090,0.07,VWS V14.01,2013-09-16 02:55:00,
2013-09-15 23:00:00,53.6,52.2,30.11,South,188,0.0,0.0,95,0.00,,OVC090,0.07,VWS V14.01,2013-09-16 03:00:00,
2013-09-15 23:05:00,53.6,52.2,30.11,South,188,0.0,0.0,95,0.00,,OVC090,0.07,VWS V14.01,2013-09-16 03:05:00,
2013-09-15 23:10:00,53.6,52.2,30.12,South,188,0.0,0.0,95,0.00,,OVC090,0.07,VWS V14.01,2013-09-16 03:10:00,
2013-09-15 23:15:00,53.7,52.3,30.11,South,188,0.0,1.0,95,0.00,,OVC090,0.07,VWS V14.01,2013-09-16 03:15:00,
2013-09-15 23:20:00,53.6,52.2,30.11,South,188,0.0,0.0,95,0.00,,OVC090,0.07,VWS V14.01,2013-09-16 03:20:00,
2013-09-15 23:25:00,53.6,52.2,30.12,South,188,0.0,1.0,95,0.00,,OVC090,0.07,VWS V14.01,2013-09-16 03:25:00,
2013-09-15 23:30:00,53.6,52.2,30.12,South,188,0.0,0.0,95,0.00,,OVC090,0.07,VWS V14.01,2013-09-16 03:30:00,
2013-09-15 23:35:00,53.5,52.1,30.12,South,188,0.0,0.0,95,0.00,,OVC090,0.07,VWS V14.01,2013-09-16 03:35:00,
2013-09-15 23:40:00,53.5,52.1,30.12,South,188,0.0,0.0,95,0.00,,OVC090,0.07,VWS V14.01,2013-09-16 03:40:00,
2013-09-15 23:45:00,53.5,52.1,30.12,South,188,2.0,2.0,95,0.00,,OVC090,0.07,VWS V14.01,2013-09-16 03:45:00,
2013-09-15 23:50:00,53.4,52.0,30.11,South,188,0.0,0.0,95,0.00,,OVC090,0.07,VWS V14.01,2013-09-16 03:50:00,
2013-09-15 23:55:00,53.4,52.0,30.12,South,188,0.0,1.0,95,0.00,,OVC090,0.07,VWS V14.01,2013-09-16 03:55:00,